Prosperine Airpo, Australia

9:50 AM AEST on December 08, 2016 (GMT +1000)
Whitsunday

Weather History for YBPN - April, 2014

Change the Weather History Date:

Tuesday, April 8, 2014

  Actual Average Record
Temperature  
Mean Temperature 76 °F -  
Max Temperature 82 °F - - ()
Min Temperature 71 °F - - ()
Cooling Degree Days 12    
Growing Degree Days 26 (Base 50)    
Moisture  
Dew Point 70 °F    
Average Humidity 83    
Maximum Humidity 96    
Minimum Humidity 67    
Precipitation  
Precipitation 0.08 in - - ()
Sea Level Pressure  
Sea Level Pressure 29.95 in    
Wind  
Wind Speed 10 mph ()    
Max Wind Speed 18 mph    
Max Gust Speed 25 mph    
Visibility 6.2 miles    
Events      
T = Trace of Precipitation, MM = Missing Value Source: Averaged Metar Reports

Daily Weather History Graph

Daily Weather History Graph

Search for Another Location

Airport or City:

Trip Planner

Search our weather history database for the weather conditions in past years. The results will help you decide how hot, cold, wet, or windy it might be!

Date:

Astronomy

Apr. 08, 2014 Rise Set
Actual Time 6:14 AM AEST 6:00 PM AEST
Civil Twilight 5:52 AM AEST 6:22 PM AEST
Nautical Twilight 5:26 AM AEST 6:48 PM AEST
Astronomical Twilight 5:01 AM AEST 7:13 PM AEST
Moon 1:15 PM AEST (4/8) 12:00 AM AEST (4/8)
Length of Visible Light 12h 29m
Length of Day
11h 45m
First Quarter, 57% of the Moon is Illuminated
Apr 8
First Quarter
Apr 15
Full
Apr 22
Last Quarter
Apr 29
New
May 7
First Quarter

Hourly Weather History & Observations

Time (AEST) Temp. Heat Index Dew Point Humidity Pressure Visibility Wind Dir Wind Speed Gust Speed Precip Events Conditions
12:00 AM 74 °F - 71 °F 89% 29.96 in - ESE 9.2 mph - -   Overcast
12:00 AM 75.2 °F - 71.6 °F 89% 29.95 in 6.2 mi ESE 9.2 mph - N/A   Overcast
1:00 AM 73.4 °F - 71.6 °F 94% 29.95 in 6.2 mi SE 5.8 mph - N/A   Unknown
2:04 AM 73.4 °F - 71.6 °F 94% 29.92 in 3.7 mi SE 12.7 mph - N/A   Overcast
3:00 AM 72 °F - 71 °F 96% 29.92 in - South 6.9 mph - -   Overcast
3:00 AM 73.4 °F - 71.6 °F 94% 29.92 in 6.2 mi South 6.9 mph - N/A   Mostly Cloudy
4:00 AM 73.4 °F - 69.8 °F 88% 29.92 in 6.2 mi SSE 6.9 mph - N/A   Scattered Clouds
5:00 AM 73.4 °F - 69.8 °F 88% 29.92 in 6.2 mi South 9.2 mph - N/A   Mostly Cloudy
6:00 AM 72 °F - 69 °F 89% 29.95 in - South 8.1 mph - -  
6:00 AM 71.6 °F - 69.8 °F 94% 29.95 in 6.2 mi South 8.1 mph - N/A   Mostly Cloudy
7:00 AM 71.6 °F - 69.8 °F 94% 29.95 in 6.2 mi South 9.2 mph - N/A   Mostly Cloudy
8:00 AM 75.2 °F - 69.8 °F 83% 29.98 in 6.2 mi SSE 9.2 mph - N/A   Scattered Clouds
9:00 AM 79 °F - 71 °F 70% 29.99 in - SE 13.8 mph - -  
9:00 AM 78.8 °F - 71.6 °F 78% 29.98 in 6.2 mi SE 13.8 mph - N/A   Scattered Clouds
10:00 AM 80.6 °F 84.6 °F 71.6 °F 74% 29.98 in 6.2 mi SE 17.3 mph - N/A   Scattered Clouds
11:00 AM 78.8 °F - 69.8 °F 74% 29.98 in 6.2 mi ESE 17.3 mph - N/A   Mostly Cloudy
12:00 PM 82 °F - 73 °F 67% 29.95 in - SE 18.4 mph - -  
12:00 PM 80.6 °F 83.9 °F 69.8 °F 70% 29.95 in 6.2 mi SE 18.4 mph - N/A   Scattered Clouds
1:00 PM 78.8 °F - 73.4 °F 83% 29.92 in 6.2 mi SSE 12.7 mph - N/A   Mostly Cloudy
2:00 PM 75.2 °F - 69.8 °F 83% 29.92 in - SE 18.4 mph - N/A   Overcast
3:00 PM 79 °F - 71 °F 70% 29.91 in 9 mi ESE 17.3 mph - -   Mostly Cloudy
3:00 PM 78.8 °F - 71.6 °F 78% 29.89 in 6.2 mi ESE 18.4 mph - N/A   Scattered Clouds
4:00 PM 78.8 °F - 69.8 °F 74% 29.92 in 6.2 mi ESE 18.4 mph - N/A   Mostly Cloudy
5:00 PM 77.0 °F - 69.8 °F 78% 29.92 in 6.2 mi SE 13.8 mph - N/A   Overcast
6:00 PM 77 °F - 69 °F 71% 29.94 in - ESE 12.7 mph - -  
6:00 PM 77.0 °F - 69.8 °F 78% 29.95 in 6.2 mi SE 13.8 mph 25.3 mph N/A   Scattered Clouds
7:00 PM 77.0 °F - 69.8 °F 78% 29.95 in 6.2 mi ESE 13.8 mph - N/A   Scattered Clouds
8:00 PM 75.2 °F - 69.8 °F 83% 29.98 in 6.2 mi SSE 9.2 mph - N/A   Scattered Clouds
9:00 PM 74 °F - 70 °F 83% 30.00 in - SSE 8.1 mph - -  
9:00 PM 73.4 °F - 69.8 °F 88% 30.01 in 6.2 mi South 8.1 mph - N/A   Mostly Cloudy
10:00 PM 73.4 °F - 69.8 °F 88% 29.98 in 6.2 mi SSE 9.2 mph - N/A   Mostly Cloudy
11:00 PM 71.6 °F - 68.0 °F 88% 29.98 in 6.2 mi South 10.4 mph - N/A   Scattered Clouds